EW8328 Weather Reports


time (UTC)temp
C
wind
direction
speed
KPH
gust
KPH
rain 1hr
cm
rain 24hr
cm
rain mn
cm
humidity
%
barometer
mb
20260904143318 16 245 16.1 27.4 0.00 1.45 0.81 73 1008.5
20260904142818 16 246 16.1 32.2 0.00 1.45 0.81 72 1008.6
20260904142318 16 251 17.7 37.0 0.00 1.45 0.81 73 1008.5
20260904141818 16 261 17.7 32.2 0.00 1.45 0.81 75 1008.7
20260904141318 16 241 16.1 32.2 0.00 1.45 0.81 75 1008.9
20260904140820 16 247 19.3 29.0 0.00 1.45 0.81 75 1008.7
20260904140317 16 247 16.1 33.8 0.00 1.45 0.81 74 1008.6
20260904135818 16 246 20.9 40.2 0.00 1.45 0.81 74 1008.5
20260904135318 16 239 17.7 33.8 0.00 1.45 0.81 74 1008.5
20260904134818 16 258 17.7 27.4 0.00 1.45 0.81 74 1008.4
20260904134318 16 243 20.9 32.2 0.00 1.45 0.81 73 1008.8
20260904133818 16 239 17.7 35.4 0.00 1.45 0.81 74 1008.5
20260904133318 16 258 14.5 35.4 0.00 1.45 0.81 75 1008.5
20260904132820 16 256 20.9 33.8 0.00 1.45 0.81 75 1008.5
20260904132318 16 249 16.1 27.4 0.00 1.45 0.81 77 1008.5
20260904131818 16 247 19.3 35.4 0.00 1.45 0.81 78 1008.4
20260904131318 15 234 22.5 35.4 0.00 1.45 0.81 78 1008.4
20260904130817 16 242 17.7 32.2 0.00 1.45 0.81 79 1008.4
20260904125819 16 238 14.5 29.0 0.00 1.45 0.81 78 1008.2
20260904125318 16 249 19.3 35.4 0.00 1.45 0.81 77 1008.1
20260904124819 16 254 20.9 33.8 0.00 1.45 0.81 78 1008.0
20260904123818 16 256 16.1 29.0 0.05 1.45 0.81 78 1007.9
20260904122318 15 244 16.1 32.2 0.05 1.45 0.81 80 1007.9
20260904121819 15 245 14.5 32.2 0.05 1.45 0.81 79 1007.9
20260904121318 16 236 14.5 29.0 0.05 1.45 0.81 79 1007.9
20260904120818 15 251 19.3 35.4 0.05 1.45 0.81 80 1007.8
20260904120318 15 257 19.3 33.8 0.05 1.45 0.81 84 1007.6
20260904114818 15 258 16.1 32.2 0.05 1.45 0.81 84 1007.3
20260904113819 16 258 16.1 25.7 0.00 1.42 0.79 75 1007.2
20260904113319 16 249 19.3 33.8 0.00 1.42 0.79 74 1007.1
20260904112318 16 234 16.1 25.7 0.00 1.42 0.79 75 1006.7
20260904111818 16 243 16.1 35.4 0.00 1.42 0.79 75 1006.8
20260904111318 16 241 16.1 32.2 0.00 1.42 0.79 75 1006.8
20260904110820 16 247 14.5 25.7 0.00 1.42 0.79 75 1006.7
20260904110319 16 248 16.1 32.2 0.00 1.42 0.79 76 1006.5
20260904105818 16 251 12.9 32.2 0.00 1.42 0.79 75 1006.5
20260904105318 16 244 16.1 32.2 0.00 1.42 0.79 76 1006.6
20260904104818 16 253 16.1 32.2 0.00 1.42 0.79 77 1006.5
20260904104318 16 244 17.7 32.2 0.00 1.42 0.79 76 1006.5
20260904103317 16 251 14.5 32.2 0.00 1.42 0.79 77 1006.5
20260904102818 16 249 14.5 32.2 0.00 1.42 0.79 77 1006.6
20260904102318 16 244 17.7 32.2 0.00 1.42 0.79 76 1006.5
20260904101819 16 249 14.5 35.4 0.00 1.42 0.79 76 1006.4
20260904101318 16 240 19.3 35.4 0.00 1.42 0.79 77 1006.2
20260904100818 16 249 16.1 32.2 0.00 1.42 0.79 77 1006.3
20260904100317 16 248 16.1 35.4 0.00 1.42 0.79 77 1006.2
20260904095818 16 254 16.1 37.0 0.00 1.42 0.79 77 1006.0
20260904095318 15 241 17.7 33.8 0.00 1.42 0.79 78 1006.0
20260904094318 15 247 11.3 46.7 0.00 1.42 0.79 81 1005.9
20260904093818 15 248 20.9 40.2 0.00 1.42 0.79 80 1006.2
20260904093318 15 250 16.1 29.0 0.00 1.42 0.79 82 1006.2
20260904092818 15 249 16.1 35.4 0.00 1.42 0.79 83 1005.9
20260904092318 15 248 16.1 35.4 0.00 1.42 0.79 83 1005.9
20260904091818 14 259 16.1 29.0 0.00 1.42 0.79 84 1005.9
20260904091318 14 242 17.7 29.0 0.00 1.42 0.79 83 1005.8
20260904090818 14 251 16.1 32.2 0.00 1.42 0.79 82 1005.8
20260904090317 14 247 16.1 32.2 0.00 1.42 0.79 83 1005.6
20260904085818 15 246 11.3 29.0 0.00 1.42 0.79 84 1005.6
20260904085317 14 248 17.7 33.8 0.00 1.42 0.79 84 1005.6
20260904084818 15 236 22.5 33.8 0.00 1.42 0.79 84 1005.6
20260904084318 15 243 17.7 29.0 0.00 1.42 0.79 84 1005.4
20260904083818 15 238 14.5 27.4 0.00 1.42 0.79 84 1005.4
20260904083318 15 246 16.1 27.4 0.00 1.42 0.79 84 1005.5
20260904082818 15 256 16.1 29.0 0.00 1.42 0.79 83 1005.4
20260904082317 15 243 14.5 37.0 0.00 1.42 0.79 84 1005.5
20260904081319 15 251 16.1 29.0 0.00 1.42 0.79 85 1005.4
20260904080817 15 249 12.9 24.1 0.00 1.42 0.79 85 1005.4
20260904080318 15 247 17.7 35.4 0.00 1.42 0.79 85 1005.3
20260904075818 15 256 14.5 29.0 0.00 1.42 0.79 86 1005.4
20260904075317 14 254 16.1 29.0 0.00 1.42 0.79 87 1005.2
20260904074817 14 247 17.7 32.2 0.00 1.45 0.79 88 1005.1
20260904074318 14 250 14.5 29.0 0.00 1.45 0.79 89 1005.2
20260904073817 14 242 16.1 29.0 0.00 1.45 0.79 89 1005.1
20260904073317 14 239 16.1 29.0 0.00 1.45 0.79 89 1005.2
20260904072818 14 239 14.5 24.1 0.00 1.45 0.79 89 1005.0
20260904072318 14 251 11.3 27.4 0.00 1.45 0.79 88 1005.0
20260904071818 14 247 16.1 24.1 0.00 1.45 0.79 89 1005.0
20260904071317 14 249 14.5 33.8 0.00 1.45 0.79 89 1005.0
20260904070817 14 249 14.5 24.1 0.00 1.45 0.79 89 1005.0
20260904070317 14 249 17.7 27.4 0.00 1.45 0.79 90 1005.0
20260904065318 13 247 16.1 27.4 0.00 1.45 0.79 91 1004.9
20260904063818 13 248 11.3 24.1 0.00 1.47 0.79 91 1004.7
20260904063317 13 239 12.9 25.7 0.00 1.47 0.79 91 1004.5
20260904062818 13 243 17.7 29.0 0.00 1.47 0.79 91 1004.4
20260904062317 13 250 14.5 27.4 0.00 1.47 0.79 91 1004.5
20260904061819 13 244 14.5 25.7 0.00 1.47 0.79 91 1004.6
20260904061318 13 253 14.5 22.5 0.00 1.47 0.79 92 1004.9
20260904060818 13 244 17.7 32.2 0.00 1.47 0.79 92 1004.7
20260904060318 13 264 14.5 29.0 0.00 1.47 0.79 93 1004.7
20260904055317 13 250 14.5 25.7 0.00 1.47 0.79 93 1004.5
20260904054318 13 247 14.5 32.2 0.00 1.47 0.79 94 1004.5
20260904053818 13 252 11.3 25.7 0.00 1.47 0.79 94 1004.5
20260904053318 13 239 11.3 24.1 0.00 1.47 0.79 94 1004.6
20260904052818 13 247 11.3 24.1 0.00 1.47 0.79 94 1004.6
20260904051817 13 251 11.3 24.1 0.00 1.47 0.79 95 1004.5
20260904051317 13 248 11.3 22.5 0.00 1.47 0.79 95 1004.5
20260904050817 13 254 9.7 19.3 0.00 1.47 0.79 95 1004.4
20260904050318 14 263 12.9 27.4 0.00 1.47 0.79 95 1004.4
20260904045818 14 255 11.3 20.9 0.00 1.47 0.79 96 1004.5
20260904045317 14 250 11.3 20.9 0.00 1.47 0.79 96 1004.6
20260904044819 14 252 9.7 16.1 0.00 1.47 0.79 96 1004.4
20260904044317 13 245 9.7 16.1 0.00 1.47 0.79 96 1004.5
20260904043819 14 255 8.0 16.1 0.00 1.47 0.79 95 1004.4
20260904043318 13 239 8.0 12.9 0.00 1.47 0.79 96 1004.5
20260904042817 13 245 6.4 14.5 0.00 1.47 0.79 96 1004.5
20260904042318 13 251 4.8 11.3 0.00 1.47 0.79 96 1004.5
20260904041817 14 244 4.8 12.9 0.00 1.47 0.79 96 1004.3
20260904041317 14 249 6.4 11.3 0.00 1.47 0.79 96 1004.3
20260904040818 14 242 8.0 11.3 0.00 1.47 0.79 96 1004.4
20260904040317 14 229 4.8 12.9 0.00 1.47 0.79 96 1004.4
20260904035817 14 255 6.4 11.3 0.00 1.47 0.79 96 1004.5
20260904035318 14 250 6.4 11.3 0.00 1.47 0.79 96 1004.7
20260904034819 14 252 9.7 14.5 0.00 1.47 0.79 96 1004.8
20260904034318 14 244 8.0 19.3 0.00 1.47 0.79 96 1004.7
20260904033818 14 249 8.0 12.9 0.00 1.47 0.79 96 1004.7
20260904033317 14 243 6.4 16.1 0.00 1.47 0.79 96 1004.8
20260904032317 13 252 6.4 9.7 0.00 1.47 0.79 96 1004.9
20260904031817 13 247 4.8 9.7 0.00 1.47 0.79 96 1005.0
20260904031317 13 227 3.2 4.8 0.00 1.47 0.79 96 1004.7
20260904030819 13 244 0.0 4.8 0.00 1.47 0.79 96 1004.8
20260904030317 13 274 1.6 3.2 0.00 1.47 0.79 96 1004.9
20260904025818 13 248 1.6 4.8 0.03 1.47 0.79 96 1004.7
20260904025317 13 248 1.6 4.8 0.03 1.47 0.79 96 1004.8
20260904024817 13 246 1.6 4.8 0.03 1.47 0.79 96 1004.9
20260904024317 13 244 4.8 11.3 0.05 1.47 0.79 96 1005.1
20260904023817 13 248 1.6 4.8 0.05 1.47 0.79 96 1005.2
20260904023317 13 245 4.8 8.0 0.08 1.47 0.79 96 1005.4
20260904022817 13 244 3.2 4.8 0.10 1.47 0.79 96 1005.5
20260904022318 13 243 3.2 4.8 0.15 1.47 0.79 96 1005.4
20260904021817 13 174 1.6 4.8 0.18 1.47 0.79 96 1005.3
20260904021317 13 223 3.2 4.8 0.20 1.47 0.79 96 1005.4
20260904020817 13 239 0.0 1.6 0.23 1.47 0.79 96 1005.4
20260904020317 13 239 0.0 1.6 0.25 1.47 0.79 96 1005.4
20260904015817 13 239 0.0 1.6 0.25 1.45 0.76 96 1005.5
20260904014817 13 239 0.0 0.0 0.30 1.45 0.76 96 1005.5
20260904014318 13 239 0.0 3.2 0.30 1.45 0.74 96 1005.6
20260904013817 13 239 3.2 4.8 0.30 1.42 0.71 96 1005.9
20260904013317 13 239 0.0 1.6 0.33 1.40 0.71 96 1005.8
20260904012317 13 239 1.6 3.2 0.28 1.35 0.64 96 1005.8
20260904011817 13 239 1.6 3.2 0.25 1.30 0.61 96 1005.9
20260904010317 13 239 1.6 1.6 0.23 1.22 0.51 95 1006.2
20260904005817 13 239 0.0 0.0 0.20 1.19 0.51 96 1006.0
20260904005317 13 239 0.0 3.2 0.20 1.17 0.48 95 1005.9
20260904004817 13 239 0.0 1.6 0.20 1.17 0.46 96 1006.0
20260904003817 13 239 0.0 3.2 0.23 1.12 0.43 95 1006.4
20260904003317 13 239 0.0 3.2 0.20 1.09 0.38 95 1006.7
20260904002817 13 239 1.6 3.2 0.23 1.09 0.38 95 1006.9
20260904002316 13 239 0.0 3.2 0.25 1.07 0.36 95 1006.7
20260904001818 13 239 0.0 0.0 0.25 1.07 0.33 95 1006.6
20260904001318 13 239 0.0 0.0 0.25 1.04 0.33 95 1006.8
20260904000817 13 239 1.6 32.2 0.28 1.04 0.33 95 1006.9
20260904000318 13 239 0.0 3.2 0.28 1.02 0.30 95 1006.8
20260903235817 13 239 0.0 3.2 0.30 1.02 0.30 95 1006.9
20260903234817 13 239 0.0 3.2 0.33 0.99 0.25 95 1007.4
20260903233318 13 239 0.0 3.2 0.33 0.89 0.18 95 1007.8
20260903232818 13 239 1.6 3.2 0.30 0.86 0.15 95 1007.9
20260903232317 13 239 1.6 3.2 0.28 0.81 0.10 95 1008.1
20260903231818 13 239 1.6 4.8 0.28 0.79 0.08 94 1008.2
20260903231317 13 239 1.6 4.8 0.30 0.79 0.05 94 1008.2
20260903230859 13 239 0.0 3.2 0.30 0.76 0.05 94 1008.2
20260903230317 13 239 0.0 3.2 0.33 0.74 0.03 94 1008.2
20260903225317 13 239 0.0 1.6 0.33 0.71 0.71 94 1008.4
20260903224817 13 239 0.0 3.2 0.33 0.69 0.69 94 1008.5
20260903223317 13 239 0.0 3.2 0.33 0.61 0.61 94 1008.7
20260903222817 13 239 0.0 1.6 0.33 0.58 0.58 94 1008.7
20260903221817 13 239 0.0 3.2 0.28 0.51 0.51 94 1008.8
20260903220317 13 261 1.6 4.8 0.18 0.46 0.43 93 1009.0
20260903215817 13 261 3.2 8.0 0.15 0.43 0.38 93 1009.0
20260903215317 13 349 1.6 4.8 0.15 0.43 0.38 92 1009.0
20260903214317 14 298 1.6 4.8 0.10 0.38 0.33 92 1009.1
20260903213817 14 325 3.2 9.7 0.05 0.33 0.30 92 1009.1
20260903213318 15 343 4.8 9.7 0.05 0.33 0.28 91 1009.3
20260903212817 15 243 3.2 8.0 0.05 0.30 0.25 91 1009.3
20260903212317 15 342 3.2 8.0 0.05 0.30 0.25 91 1009.3
20260903211817 15 244 3.2 14.5 0.03 0.28 0.23 92 1009.4
20260903210817 15 247 4.8 9.7 0.03 0.28 0.23 92 1009.5
20260903210317 15 232 4.8 11.3 0.03 0.28 0.23 92 1009.4
20260903205317 15 249 4.8 11.3 0.05 0.28 0.23 92 1009.5
20260903204817 15 226 4.8 11.3 0.05 0.28 0.23 92 1009.5
20260903204317 15 215 4.8 12.9 0.05 0.28 0.23 91 1009.5
20260903203317 16 210 4.8 14.5 0.03 0.25 0.23 91 1009.6
20260903202817 16 228 9.7 14.5 0.03 0.25 0.23 91 1009.7
20260903202318 16 219 8.0 14.5 0.03 0.25 0.23 91 1009.7
20260903201818 16 221 8.0 16.1 0.03 0.25 0.23 90 1009.9
20260903201317 16 218 9.7 19.3 0.05 0.25 0.23 91 1009.9
20260903200817 16 218 8.0 14.5 0.05 0.25 0.23 91 1010.1
20260903200317 16 221 6.4 14.5 0.05 0.25 0.23 90 1010.0
20260903195817 16 224 6.4 14.5 0.05 0.25 0.23 90 1010.0
20260903195316 16 240 4.8 11.3 0.05 0.23 0.20 90 1010.0
20260903194818 16 229 3.2 8.0 0.05 0.23 0.20 91 1009.9
20260903193317 16 210 4.8 9.7 0.08 0.23 0.20 90 1009.9
20260903192817 16 230 4.8 11.3 0.08 0.23 0.20 91 1009.9
20260903192317 16 217 4.8 11.3 0.08 0.23 0.20 91 1010.0
20260903191319 16 198 4.8 14.5 0.08 0.23 0.18 91 1010.1
20260903190816 16 187 8.0 12.9 0.08 0.23 0.18 91 1010.1
20260903190317 16 209 3.2 4.8 0.08 0.23 0.18 92 1010.1
20260903185817 16 203 3.2 8.0 0.05 0.20 0.15 91 1010.2
20260903185317 16 214 3.2 8.0 0.05 0.20 0.15 91 1010.4
20260903184817 16 215 4.8 12.9 0.05 0.20 0.15 91 1010.5
20260903183317 16 231 3.2 4.8 0.05 0.15 0.13 91 1010.6
20260903182317 16 268 3.2 8.0 0.05 0.15 0.13 90 1010.6
20260903181817 17 227 3.2 9.7 0.05 0.15 0.13 90 1010.7
20260903181317 17 246 4.8 12.9 0.03 0.15 0.10 90 1010.7
20260903180818 17 227 4.8 9.7 0.03 0.15 0.10 89 1010.9
20260903180317 17 235 6.4 11.3 0.03 0.15 0.10 89 1010.8
20260903175817 17 226 4.8 11.3 0.03 0.15 0.10 89 1010.8
20260903175316 17 238 8.0 16.1 0.03 0.15 0.10 88 1010.8
20260903174818 17 245 9.7 19.3 0.03 0.15 0.10 88 1011.0
20260903174317 17 226 11.3 22.5 0.03 0.15 0.10 88 1011.2
20260903173817 17 232 9.7 19.3 0.00 0.13 0.08 88 1011.3
20260903173317 17 252 4.8 14.5 0.00 0.13 0.08 88 1011.3
20260903172817 17 240 4.8 11.3 0.00 0.13 0.08 88 1011.3
20260903172317 17 234 8.0 14.5 0.00 0.13 0.08 88 1011.3
20260903171817 17 245 6.4 14.5 0.00 0.13 0.08 88 1011.2
20260903171316 17 254 3.2 11.3 0.00 0.13 0.08 87 1011.1
20260903170816 17 240 6.4 11.3 0.00 0.13 0.08 87 1011.0
20260903170317 17 256 6.4 12.9 0.00 0.13 0.08 87 1011.1
20260903165817 17 250 4.8 11.3 0.00 0.13 0.08 86 1011.0
20260903165318 17 242 4.8 9.7 0.00 0.13 0.08 87 1010.9
20260903164817 17 261 4.8 11.3 0.00 0.13 0.08 86 1010.9
20260903164317 17 237 8.0 12.9 0.00 0.13 0.08 86 1011.1
20260903163817 17 229 8.0 16.1 0.00 0.13 0.08 86 1011.2
20260903163316 17 232 8.0 14.5 0.00 0.13 0.08 85 1011.4
20260903162818 17 245 9.7 19.3 0.00 0.13 0.08 85 1011.6
20260903162317 17 236 9.7 19.3 0.00 0.13 0.08 85 1011.6
20260903161817 17 233 6.4 16.1 0.00 0.13 0.08 85 1011.5
20260903161317 17 244 9.7 19.3 0.00 0.13 0.08 85 1011.5
20260903160318 18 235 8.0 19.3 0.00 0.13 0.08 82 1011.8
20260903155817 18 243 8.0 16.1 0.00 0.13 0.08 81 1011.9
20260903155316 18 270 11.3 24.1 0.00 0.13 0.08 80 1011.9
20260903154817 18 258 8.0 19.3 0.00 0.13 0.08 79 1011.9
20260903154317 18 239 8.0 14.5 0.00 0.13 0.08 79 1011.7
20260903153817 18 247 8.0 12.9 0.00 0.13 0.08 79 1011.7
20260903153317 18 253 8.0 14.5 0.00 0.13 0.08 78 1011.9
20260903152816 18 255 8.0 12.9 0.00 0.13 0.08 78 1012.0
20260903152317 18 249 9.7 19.3 0.00 0.13 0.08 77 1011.9
20260903151817 18 240 11.3 20.9 0.00 0.13 0.08 77 1011.8
20260903151318 18 253 9.7 20.9 0.00 0.13 0.08 77 1011.9
20260903150816 18 247 8.0 20.9 0.00 0.13 0.08 77 1012.2
20260903150317 18 252 8.0 19.3 0.00 0.13 0.08 76 1012.2
20260903145817 19 234 11.3 25.7 0.00 0.13 0.08 75 1012.2
20260903145316 19 232 9.7 16.1 0.00 0.13 0.08 75 1012.1
20260903144316 19 247 11.3 24.1 0.00 0.13 0.08 75 1012.1
20260903143818 19 215 9.7 20.9 0.00 0.13 0.08 75 1012.0